DW4827 Weather Reports


time (UTC)temp
F
wind
direction
speed
knots
gust
knots
rain 1hr
in
rain 24hr
in
rain mn
in
humidity
%
barometer
mb
20260503200006 80 284 2.6 8.7 0.00 0.00 0.00 55 1010.7
20260503195007 79 310 4.3 8.7 0.00 0.00 0.00 53 1010.7
20260503194006 79 297 5.2 8.7 0.00 0.00 0.00 52 1010.7
20260503193006 78 294 4.3 10.4 0.00 0.00 0.00 54 1011.0
20260503192007 78 299 3.5 11.3 0.00 0.00 0.00 57 1011.0
20260503191006 78 327 2.6 8.7 0.00 0.00 0.00 55 1011.2
20260503190006 78 305 2.6 7.8 0.00 0.00 0.00 61 1011.2
20260503185007 76 305 4.3 7.8 0.00 0.00 0.00 66 1011.4
20260503184006 76 305 2.6 10.4 0.00 0.00 0.00 58 1011.5
20260503183006 75 301 5.2 10.4 0.00 0.00 0.00 58 1011.5
20260503182006 75 288 2.6 8.7 0.00 0.00 0.00 61 1011.6
20260503181007 74 328 5.2 10.4 0.00 0.00 0.00 65 1011.8
20260503180007 73 311 2.6 8.7 0.00 0.00 0.00 66 1011.8
20260503175006 73 292 4.3 8.7 0.00 0.00 0.00 63 1011.8
20260503174006 72 282 2.6 6.1 0.00 0.00 0.00 65 1011.9
20260503173006 71 308 2.6 7.0 0.00 0.00 0.00 66 1012.0
20260503172006 70 294 4.3 10.4 0.00 0.00 0.00 62 1012.0
20260503171006 71 291 4.3 7.8 0.00 0.00 0.00 62 1012.1
20260503151007 53 324 0.0 0.0 0.00 0.00 0.00 97 1012.9
20260503131005 47 324 0.0 0.0 0.00 0.00 0.00 95 1012.6
20260503081006 54 324 0.0 0.0 0.00 0.00 0.00 93 1013.0
20260503072005 55 324 0.0 0.0 0.00 0.00 0.00 92 1012.7
20260503055005 58 324 0.0 0.0 0.00 0.00 0.00 88 1012.6
20260503054005 58 324 0.0 0.0 0.00 0.00 0.00 87 1012.7
20260503053006 59 324 0.0 0.0 0.00 0.00 0.00 87 1012.7
20260503052006 60 324 0.0 0.0 0.00 0.00 0.00 86 1012.7
20260503051005 60 324 0.0 0.0 0.00 0.00 0.00 85 1012.6
20260503050005 60 324 0.0 0.0 0.00 0.00 0.00 83 1012.6
20260503045004 61 324 0.0 0.0 0.00 0.00 0.00 83 1012.6
20260503044004 62 324 0.0 0.0 0.00 0.00 0.00 81 1012.5
20260503043005 62 324 0.0 0.0 0.00 0.00 0.00 80 1012.5
20260503042004 63 324 0.0 0.9 0.00 0.00 0.00 78 1011.6
20260503041005 64 324 0.0 0.9 0.00 0.00 0.00 77 1011.6
20260503040004 65 324 0.0 2.6 0.00 0.00 0.00 75 1011.6
20260503035009 66 324 0.9 2.6 0.00 0.00 0.00 72 1011.6
20260503034008 67 324 0.9 2.6 0.00 0.00 0.00 71 1011.6
20260503033008 68 337 1.7 2.6 0.00 0.00 0.00 69 1011.4
20260503032008 69 311 0.9 2.6 0.00 0.00 0.00 68 1011.2
20260503031007 70 305 1.7 5.2 0.00 0.00 0.00 66 1011.2
20260503030007 70 324 2.6 6.1 0.00 0.00 0.00 66 1010.8
20260503025008 71 271 1.7 8.7 0.00 0.00 0.00 66 1010.8
20260503023007 72 304 5.2 12.2 0.00 0.00 0.00 64 1010.6
20260503022007 73 297 4.3 10.4 0.00 0.00 0.00 63 1010.6
20260503020007 74 278 5.2 10.4 0.00 0.00 0.00 62 1010.6
20260503015007 74 286 5.2 10.4 0.00 0.00 0.00 63 1010.6
20260503014008 74 290 3.5 8.7 0.00 0.00 0.00 62 1010.6
20260503013007 74 288 5.2 12.2 0.00 0.00 0.00 61 1010.6
20260503012007 75 275 4.3 11.3 0.00 0.00 0.00 62 1010.6
20260503011007 75 318 5.2 11.3 0.00 0.00 0.00 62 1010.7
20260503005007 75 283 4.3 10.4 0.00 0.00 0.00 63 1010.7
20260503004007 75 257 3.5 12.2 0.00 0.00 0.00 63 1010.7
20260503003008 76 295 6.1 11.3 0.00 0.00 0.00 63 1011.0
20260503002006 76 302 4.3 10.4 0.00 0.00 0.00 62 1011.0
20260502235007 76 273 7.0 14.8 0.00 0.00 0.00 61 1011.0
20260502234007 76 305 6.1 10.4 0.00 0.00 0.00 60 1011.0
20260502233006 76 287 7.0 13.9 0.00 0.00 0.00 60 1011.7
20260502232007 76 291 4.3 13.9 0.00 0.00 0.00 60 1011.7
20260502230007 77 282 8.7 11.3 0.00 0.00 0.00 59 1011.7
20260502225007 77 298 5.2 11.3 0.00 0.00 0.00 58 1011.7
20260502224007 77 277 5.2 10.4 0.00 0.00 0.00 58 1011.9
20260502223006 76 289 4.3 10.4 0.00 0.00 0.00 63 1012.0
20260502222006 76 290 4.3 10.4 0.00 0.00 0.00 59 1012.0
20260502221007 76 329 5.2 12.2 0.00 0.00 0.00 61 1012.4
20260502215006 76 321 2.6 10.4 0.00 0.00 0.00 65 1012.6
20260502214007 74 282 6.1 12.2 0.00 0.00 0.00 60 1012.6
20260502213007 74 296 5.2 11.3 0.00 0.00 0.00 62 1012.7
20260502212006 75 293 3.5 8.7 0.00 0.00 0.00 59 1013.0
20260502211007 74 296 5.2 12.2 0.00 0.00 0.00 65 1013.0
20260502205006 73 292 7.0 10.4 0.00 0.00 0.00 60 1013.0
20260502204006 73 271 4.3 8.7 0.00 0.00 0.00 62 1013.2
20260502202006 72 265 8.7 15.6 0.00 0.00 0.00 61 1013.6
20260502201006 72 282 4.3 8.7 0.00 0.00 0.00 63 1013.6